| time (UTC) | temp C | wind direction | speed KPH | gust KPH | rain 1hr cm | rain 24hr cm | rain mn cm | humidity % | barometer mb |
| 20260502160947 | 16 | 350 | 3.2 | 14.5 | 0.00 | 0.00 | 0.00 | 64 | 1011.2 |
| 20260502160445 | 17 | 321 | 4.8 | 11.3 | 0.00 | 0.00 | 0.00 | 64 | 1011.2 |
| 20260502151942 | 16 | 248 | 3.2 | 14.5 | 0.00 | 0.00 | 0.00 | 65 | 1011.7 |
| 20260502151442 | 16 | 251 | 9.7 | 14.5 | 0.00 | 0.00 | 0.00 | 64 | 1011.9 |
| 20260502150939 | 16 | 296 | 9.7 | 14.5 | 0.00 | 0.00 | 0.00 | 63 | 1012.0 |
| 20260502150437 | 17 | 259 | 11.3 | 14.5 | 0.00 | 0.00 | 0.00 | 66 | 1012.0 |
| 20260502130432 | 16 | 292 | 11.3 | 17.7 | 0.00 | 0.00 | 0.00 | 70 | 1012.9 |
| 20260502123431 | 15 | 262 | 8.0 | 20.9 | 0.00 | 0.00 | 0.00 | 73 | 1013.3 |
| 20260502122932 | 16 | 293 | 14.5 | 20.9 | 0.00 | 0.00 | 0.00 | 69 | 1013.4 |
| 20260502122432 | 16 | 241 | 12.9 | 19.3 | 0.00 | 0.00 | 0.00 | 70 | 1013.5 |
| 20260502121932 | 15 | 243 | 12.9 | 25.7 | 0.00 | 0.00 | 0.00 | 73 | 1013.6 |
| 20260502121432 | 15 | 252 | 11.3 | 25.7 | 0.00 | 0.00 | 0.00 | 73 | 1013.5 |
| 20260502121156 | 15 | 276 | 11.3 | 22.5 | 0.00 | 0.00 | 0.00 | 72 | 1013.5 |
| 20260502120431 | 16 | 295 | 16.1 | 20.9 | 0.00 | 0.00 | 0.00 | 71 | 1013.6 |
| 20260502115931 | 16 | 290 | 9.7 | 20.9 | 0.00 | 0.00 | 0.00 | 74 | 1013.7 |
| 20260502115431 | 16 | 241 | 9.7 | 24.1 | 0.00 | 0.00 | 0.00 | 72 | 1013.6 |
| 20260502115153 | 15 | 255 | 14.5 | 24.1 | 0.00 | 0.00 | 0.00 | 72 | 1013.6 |
| 20260502114431 | 15 | 220 | 11.3 | 25.7 | 0.00 | 0.00 | 0.00 | 72 | 1013.5 |
| 20260502113931 | 16 | 247 | 16.1 | 25.7 | 0.00 | 0.00 | 0.00 | 73 | 1013.5 |
| 20260502113430 | 16 | 258 | 12.9 | 25.7 | 0.00 | 0.00 | 0.00 | 70 | 1013.5 |
| 20260502112930 | 16 | 244 | 14.5 | 22.5 | 0.00 | 0.00 | 0.00 | 72 | 1013.4 |
| 20260502112430 | 16 | 252 | 12.9 | 25.7 | 0.00 | 0.00 | 0.00 | 72 | 1013.5 |
| 20260502111928 | 15 | 268 | 16.1 | 25.7 | 0.00 | 0.00 | 0.00 | 72 | 1013.5 |
| 20260502111428 | 16 | 202 | 16.1 | 24.1 | 0.00 | 0.00 | 0.00 | 72 | 1013.3 |
| 20260502111151 | 16 | 250 | 12.9 | 24.1 | 0.00 | 0.00 | 0.00 | 72 | 1013.3 |
| 20260502110427 | 15 | 298 | 9.7 | 24.1 | 0.00 | 0.00 | 0.00 | 72 | 1013.3 |
| 20260502105925 | 15 | 258 | 11.3 | 20.9 | 0.00 | 0.00 | 0.00 | 71 | 1013.4 |
| 20260502105426 | 16 | 298 | 8.0 | 20.9 | 0.00 | 0.00 | 0.00 | 72 | 1013.6 |
| 20260502104925 | 15 | 245 | 12.9 | 20.9 | 0.00 | 0.00 | 0.00 | 72 | 1013.7 |
| 20260502104643 | 15 | 286 | 8.0 | 19.3 | 0.00 | 0.00 | 0.00 | 74 | 1013.6 |
| 20260502103924 | 15 | 313 | 9.7 | 20.9 | 0.00 | 0.00 | 0.00 | 72 | 1013.6 |
| 20260502103425 | 15 | 243 | 11.3 | 20.9 | 0.00 | 0.00 | 0.00 | 73 | 1013.7 |
| 20260502103141 | 15 | 278 | 11.3 | 24.1 | 0.00 | 0.00 | 0.00 | 72 | 1013.9 |
| 20260502102423 | 15 | 233 | 11.3 | 24.1 | 0.00 | 0.00 | 0.00 | 73 | 1013.8 |
| 20260502101923 | 15 | 281 | 8.0 | 22.5 | 0.00 | 0.00 | 0.00 | 73 | 1013.9 |
| 20260502101419 | 15 | 317 | 12.9 | 22.5 | 0.00 | 0.00 | 0.00 | 72 | 1013.8 |
| 20260502100919 | 15 | 237 | 9.7 | 24.1 | 0.00 | 0.00 | 0.00 | 73 | 1013.8 |
| 20260502100417 | 15 | 275 | 11.3 | 25.7 | 0.00 | 0.00 | 0.00 | 73 | 1013.7 |
| 20260502100138 | 15 | 250 | 17.7 | 25.7 | 0.00 | 0.00 | 0.00 | 74 | 1013.9 |
| 20260502091415 | 14 | 295 | 11.3 | 20.9 | 0.00 | 0.00 | 0.00 | 75 | 1014.0 |
| 20260502090915 | 14 | 286 | 11.3 | 27.4 | 0.00 | 0.00 | 0.00 | 75 | 1014.0 |
| 20260502090411 | 14 | 319 | 11.3 | 27.4 | 0.00 | 0.00 | 0.00 | 76 | 1014.0 |
| 20260502071403 | 10 | 279 | 9.7 | 20.9 | 0.00 | 0.00 | 0.00 | 87 | 1014.1 |
| 20260502070904 | 10 | 257 | 12.9 | 20.9 | 0.00 | 0.00 | 0.00 | 87 | 1014.1 |
| 20260502070403 | 10 | 271 | 6.4 | 24.1 | 0.00 | 0.00 | 0.00 | 87 | 1014.1 |
| 20260502065903 | 10 | 243 | 11.3 | 24.1 | 0.00 | 0.00 | 0.00 | 87 | 1014.0 |
| 20260502065631 | 10 | 257 | 8.0 | 19.3 | 0.00 | 0.00 | 0.00 | 87 | 1014.0 |
| 20260502064902 | 10 | 261 | 9.7 | 19.3 | 0.00 | 0.00 | 0.00 | 87 | 1014.0 |
| 20260502064404 | 11 | 258 | 11.3 | 19.3 | 0.00 | 0.00 | 0.00 | 87 | 1014.0 |
| 20260502063902 | 10 | 262 | 4.8 | 16.1 | 0.00 | 0.00 | 0.00 | 87 | 1013.9 |
| 20260502062902 | 10 | 262 | 9.7 | 16.1 | 0.00 | 0.00 | 0.00 | 87 | 1014.0 |
| 20260502062630 | 10 | 251 | 4.8 | 11.3 | 0.00 | 0.00 | 0.00 | 87 | 1013.9 |
| 20260502061902 | 10 | 292 | 3.2 | 17.7 | 0.00 | 0.00 | 0.00 | 87 | 1014.0 |
| 20260502061403 | 10 | 288 | 8.0 | 19.3 | 0.00 | 0.00 | 0.00 | 87 | 1014.0 |
| 20260502061128 | 10 | 290 | 12.9 | 19.3 | 0.00 | 0.00 | 0.00 | 87 | 1013.9 |
| 20260502060403 | 10 | 250 | 8.0 | 17.7 | 0.00 | 0.00 | 0.00 | 87 | 1013.9 |
| 20260502055903 | 10 | 298 | 11.3 | 17.7 | 0.00 | 0.00 | 0.00 | 86 | 1013.9 |
| 20260502055402 | 10 | 237 | 11.3 | 24.1 | 0.00 | 0.00 | 0.00 | 86 | 1013.8 |
| 20260502054902 | 10 | 286 | 8.0 | 24.1 | 0.00 | 0.00 | 0.00 | 86 | 1013.9 |
| 20260502054403 | 10 | 244 | 11.3 | 19.3 | 0.00 | 0.00 | 0.00 | 86 | 1013.9 |
| 20260502053902 | 10 | 272 | 9.7 | 16.1 | 0.00 | 0.00 | 0.00 | 86 | 1013.9 |
| 20260502052902 | 10 | 292 | 11.3 | 19.3 | 0.00 | 0.00 | 0.00 | 86 | 1013.9 |
| 20260502052402 | 10 | 305 | 9.7 | 19.3 | 0.00 | 0.00 | 0.00 | 86 | 1014.0 |
| 20260502051903 | 10 | 282 | 8.0 | 19.3 | 0.00 | 0.00 | 0.00 | 86 | 1013.9 |
| 20260502051402 | 10 | 276 | 8.0 | 16.1 | 0.00 | 0.00 | 0.00 | 86 | 1014.0 |
| 20260502050902 | 10 | 286 | 6.4 | 17.7 | 0.00 | 0.00 | 0.00 | 86 | 1014.0 |
| 20260502050402 | 10 | 247 | 9.7 | 17.7 | 0.00 | 0.00 | 0.00 | 86 | 1014.1 |
| 20260502045903 | 10 | 275 | 6.4 | 16.1 | 0.00 | 0.00 | 0.00 | 86 | 1013.9 |
| 20260502045402 | 10 | 293 | 9.7 | 17.7 | 0.00 | 0.00 | 0.00 | 86 | 1014.0 |
| 20260502044902 | 10 | 251 | 11.3 | 19.3 | 0.00 | 0.00 | 0.00 | 86 | 1014.0 |
| 20260502044401 | 10 | 265 | 11.3 | 20.9 | 0.00 | 0.00 | 0.00 | 86 | 1014.0 |
| 20260502043902 | 10 | 197 | 12.9 | 20.9 | 0.00 | 0.00 | 0.00 | 86 | 1014.0 |
| 20260502043619 | 10 | 251 | 11.3 | 19.3 | 0.00 | 0.00 | 0.00 | 86 | 1014.0 |
| 20260502042902 | 10 | 292 | 8.0 | 16.1 | 0.00 | 0.00 | 0.00 | 86 | 1014.1 |
| 20260502042403 | 10 | 285 | 8.0 | 17.7 | 0.00 | 0.00 | 0.00 | 86 | 1014.0 |
| 20260502041903 | 10 | 278 | 8.0 | 17.7 | 0.00 | 0.00 | 0.00 | 87 | 1014.1 |
| 20260502041402 | 10 | 302 | 8.0 | 16.1 | 0.00 | 0.00 | 0.00 | 87 | 1014.1 |
| 20260502040902 | 10 | 276 | 8.0 | 16.1 | 0.00 | 0.00 | 0.00 | 87 | 1014.2 |
| 20260502040402 | 10 | 300 | 6.4 | 19.3 | 0.00 | 0.00 | 0.00 | 87 | 1014.3 |
| 20260502040125 | 10 | 296 | 9.7 | 19.3 | 0.00 | 0.00 | 0.00 | 87 | 1014.3 |
| 20260502035402 | 10 | 286 | 6.4 | 14.5 | 0.00 | 0.00 | 0.00 | 88 | 1014.4 |
| 20260502034902 | 10 | 285 | 6.4 | 9.7 | 0.00 | 0.00 | 0.00 | 88 | 1014.4 |
| 20260502034402 | 10 | 275 | 4.8 | 14.5 | 0.00 | 0.00 | 0.00 | 88 | 1014.3 |
| 20260502033903 | 10 | 275 | 8.0 | 17.7 | 0.00 | 0.00 | 0.00 | 87 | 1014.4 |
| 20260502033630 | 10 | 281 | 9.7 | 17.7 | 0.00 | 0.00 | 0.00 | 87 | 1014.4 |
| 20260502032902 | 10 | 247 | 8.0 | 14.5 | 0.00 | 0.00 | 0.00 | 87 | 1014.3 |
| 20260502032402 | 10 | 285 | 6.4 | 22.5 | 0.00 | 0.00 | 0.00 | 87 | 1014.3 |
| 20260502031402 | 10 | 275 | 6.4 | 14.5 | 0.00 | 0.00 | 0.00 | 88 | 1014.3 |
| 20260502030903 | 10 | 282 | 8.0 | 14.5 | 0.00 | 0.00 | 0.00 | 88 | 1014.2 |
| 20260502030621 | 10 | 307 | 6.4 | 14.5 | 0.00 | 0.00 | 0.00 | 88 | 1014.2 |
| 20260502025902 | 10 | 288 | 8.0 | 11.3 | 0.00 | 0.00 | 0.00 | 88 | 1014.3 |
| 20260502025403 | 10 | 276 | 8.0 | 16.1 | 0.00 | 0.00 | 0.00 | 88 | 1014.4 |
| 20260502024901 | 10 | 289 | 6.4 | 17.7 | 0.00 | 0.00 | 0.00 | 88 | 1014.3 |
| 20260502024402 | 10 | 255 | 9.7 | 19.3 | 0.00 | 0.00 | 0.00 | 88 | 1014.3 |
| 20260502024128 | 10 | 265 | 9.7 | 19.3 | 0.00 | 0.00 | 0.00 | 89 | 1014.3 |
| 20260502023402 | 10 | 279 | 9.7 | 17.7 | 0.00 | 0.00 | 0.00 | 89 | 1014.3 |
| 20260502022902 | 10 | 298 | 6.4 | 16.1 | 0.00 | 0.00 | 0.00 | 89 | 1014.4 |
| 20260502022402 | 10 | 244 | 9.7 | 17.7 | 0.00 | 0.00 | 0.00 | 89 | 1014.3 |
| 20260502021902 | 9 | 295 | 8.0 | 17.7 | 0.00 | 0.00 | 0.00 | 89 | 1014.4 |
| 20260502021625 | 9 | 278 | 6.4 | 14.5 | 0.00 | 0.00 | 0.00 | 89 | 1014.4 |
| 20260502020902 | 10 | 281 | 6.4 | 11.3 | 0.00 | 0.00 | 0.00 | 89 | 1014.4 |
| 20260502020402 | 10 | 279 | 6.4 | 14.5 | 0.00 | 0.00 | 0.00 | 89 | 1014.4 |
| 20260502015901 | 10 | 276 | 6.4 | 16.1 | 0.00 | 0.00 | 0.00 | 89 | 1014.5 |
| 20260502015402 | 10 | 300 | 11.3 | 16.1 | 0.00 | 0.00 | 0.00 | 89 | 1014.6 |
| 20260502014902 | 10 | 250 | 6.4 | 16.1 | 0.00 | 0.00 | 0.00 | 88 | 1014.5 |
| 20260502014402 | 10 | 292 | 8.0 | 16.1 | 0.00 | 0.00 | 0.00 | 88 | 1014.6 |
| 20260502013902 | 10 | 283 | 8.0 | 14.5 | 0.00 | 0.00 | 0.00 | 88 | 1014.8 |
| 20260502013404 | 10 | 286 | 8.0 | 14.5 | 0.00 | 0.00 | 0.00 | 88 | 1014.7 |
| 20260502012902 | 10 | 278 | 8.0 | 14.5 | 0.00 | 0.00 | 0.00 | 88 | 1014.8 |
| 20260502012402 | 10 | 272 | 8.0 | 11.3 | 0.00 | 0.00 | 0.00 | 88 | 1014.9 |
| 20260502011901 | 10 | 281 | 8.0 | 11.3 | 0.00 | 0.00 | 0.00 | 87 | 1015.0 |
| 20260502011401 | 10 | 276 | 4.8 | 9.7 | 0.00 | 0.00 | 0.00 | 87 | 1015.0 |
| 20260502010902 | 10 | 278 | 4.8 | 14.5 | 0.00 | 0.00 | 0.00 | 87 | 1015.0 |
| 20260502005902 | 10 | 274 | 6.4 | 14.5 | 0.00 | 0.00 | 0.00 | 87 | 1015.1 |
| 20260502005402 | 10 | 278 | 6.4 | 14.5 | 0.00 | 0.00 | 0.00 | 87 | 1015.1 |
| 20260502005129 | 10 | 285 | 9.7 | 11.3 | 0.00 | 0.00 | 0.00 | 87 | 1015.1 |
| 20260502004623 | 10 | 281 | 6.4 | 11.3 | 0.00 | 0.00 | 0.00 | 87 | 1015.2 |
| 20260502003902 | 11 | 262 | 6.4 | 11.3 | 0.00 | 0.00 | 0.00 | 87 | 1015.3 |
| 20260502003402 | 11 | 261 | 6.4 | 11.3 | 0.00 | 0.00 | 0.00 | 87 | 1015.4 |
| 20260502002902 | 11 | 282 | 6.4 | 11.3 | 0.00 | 0.00 | 0.00 | 86 | 1015.3 |
| 20260502002625 | 11 | 288 | 6.4 | 11.3 | 0.00 | 0.00 | 0.00 | 86 | 1015.3 |
| 20260502001902 | 11 | 261 | 4.8 | 9.7 | 0.00 | 0.00 | 0.00 | 86 | 1015.3 |
| 20260502001402 | 11 | 261 | 6.4 | 11.3 | 0.00 | 0.00 | 0.00 | 86 | 1015.4 |
| 20260502001121 | 11 | 261 | 6.4 | 14.5 | 0.00 | 0.00 | 0.00 | 85 | 1015.3 |
| 20260502000402 | 11 | 266 | 8.0 | 14.5 | 0.00 | 0.00 | 0.00 | 85 | 1015.3 |
| 20260501235902 | 11 | 285 | 9.7 | 14.5 | 0.00 | 0.00 | 0.00 | 85 | 1015.2 |
| 20260501235402 | 12 | 292 | 9.7 | 17.7 | 0.00 | 0.00 | 0.00 | 85 | 1015.3 |
| 20260501234901 | 12 | 282 | 11.3 | 17.7 | 0.00 | 0.00 | 0.00 | 84 | 1015.3 |
| 20260501234402 | 12 | 261 | 8.0 | 16.1 | 0.00 | 0.00 | 0.00 | 84 | 1015.3 |
| 20260501233902 | 12 | 312 | 6.4 | 17.7 | 0.00 | 0.00 | 0.00 | 84 | 1015.3 |
| 20260501233405 | 12 | 272 | 8.0 | 17.7 | 0.00 | 0.00 | 0.00 | 84 | 1015.4 |
| 20260501232905 | 12 | 293 | 8.0 | 17.7 | 0.00 | 0.00 | 0.00 | 84 | 1015.4 |
| 20260501232405 | 12 | 275 | 9.7 | 17.7 | 0.00 | 0.00 | 0.00 | 84 | 1015.3 |
| 20260501231901 | 12 | 295 | 8.0 | 11.3 | 0.00 | 0.00 | 0.00 | 84 | 1015.3 |
| 20260501231627 | 12 | 292 | 8.0 | 11.3 | 0.00 | 0.00 | 0.00 | 84 | 1015.3 |
| 20260501230902 | 12 | 298 | 6.4 | 14.5 | 0.00 | 0.00 | 0.00 | 84 | 1015.2 |
| 20260501230403 | 12 | 320 | 6.4 | 14.5 | 0.00 | 0.00 | 0.00 | 84 | 1015.2 |
| 20260501225627 | 12 | 317 | 6.4 | 9.7 | 0.00 | 0.00 | 0.00 | 84 | 1015.2 |
| 20260501224901 | 12 | 309 | 4.8 | 11.3 | 0.00 | 0.00 | 0.00 | 84 | 1015.3 |
| 20260501224402 | 12 | 310 | 6.4 | 14.5 | 0.00 | 0.00 | 0.00 | 84 | 1015.2 |
| 20260501223902 | 12 | 296 | 6.4 | 17.7 | 0.00 | 0.00 | 0.00 | 84 | 1015.3 |
| 20260501223625 | 12 | 271 | 9.7 | 17.7 | 0.00 | 0.00 | 0.00 | 84 | 1015.4 |
| 20260501222903 | 12 | 258 | 6.4 | 11.3 | 0.00 | 0.00 | 0.00 | 85 | 1015.3 |
| 20260501222402 | 12 | 344 | 3.2 | 8.0 | 0.00 | 0.00 | 0.00 | 85 | 1015.3 |
| 20260501221902 | 12 | 344 | 3.2 | 6.4 | 0.00 | 0.00 | 0.00 | 85 | 1015.3 |
| 20260501221403 | 12 | 344 | 3.2 | 8.0 | 0.00 | 0.00 | 0.00 | 86 | 1015.3 |
| 20260501220902 | 12 | 344 | 3.2 | 11.3 | 0.00 | 0.00 | 0.00 | 86 | 1015.3 |
| 20260501220623 | 12 | 345 | 6.4 | 16.1 | 0.00 | 0.00 | 0.00 | 86 | 1015.2 |
| 20260501215901 | 12 | 274 | 4.8 | 16.1 | 0.00 | 0.00 | 0.00 | 86 | 1015.3 |
| 20260501215621 | 12 | 351 | 6.4 | 17.7 | 0.00 | 0.00 | 0.00 | 86 | 1015.3 |
| 20260501214903 | 12 | 316 | 4.8 | 20.9 | 0.00 | 0.00 | 0.00 | 85 | 1015.3 |
| 20260501214402 | 12 | 290 | 11.3 | 20.9 | 0.00 | 0.00 | 0.00 | 85 | 1015.3 |
| 20260501213902 | 13 | 281 | 9.7 | 16.1 | 0.00 | 0.00 | 0.00 | 84 | 1015.2 |
| 20260501213401 | 13 | 299 | 6.4 | 19.3 | 0.00 | 0.00 | 0.00 | 84 | 1015.1 |
| 20260501212902 | 13 | 274 | 11.3 | 19.3 | 0.00 | 0.00 | 0.00 | 84 | 1015.1 |
| 20260501212402 | 13 | 320 | 8.0 | 11.3 | 0.00 | 0.00 | 0.00 | 83 | 1015.2 |
| 20260501211903 | 13 | 338 | 3.2 | 11.3 | 0.00 | 0.00 | 0.00 | 83 | 1015.3 |
| 20260501211619 | 13 | 345 | 6.4 | 11.3 | 0.00 | 0.00 | 0.00 | 83 | 1015.2 |
| 20260501210902 | 13 | 309 | 4.8 | 11.3 | 0.00 | 0.00 | 0.00 | 82 | 1015.2 |
| 20260501210402 | 13 | 307 | 4.8 | 11.3 | 0.00 | 0.00 | 0.00 | 82 | 1015.2 |
| 20260501205902 | 13 | 305 | 4.8 | 9.7 | 0.00 | 0.00 | 0.00 | 82 | 1015.2 |
| 20260501205403 | 13 | 305 | 6.4 | 9.7 | 0.00 | 0.00 | 0.00 | 82 | 1015.3 |
| 20260501204902 | 13 | 289 | 1.6 | 6.4 | 0.00 | 0.00 | 0.00 | 81 | 1015.3 |
| 20260501204402 | 13 | 289 | 1.6 | 9.7 | 0.00 | 0.00 | 0.00 | 81 | 1015.2 |
| 20260501203902 | 13 | 288 | 1.6 | 14.5 | 0.00 | 0.00 | 0.00 | 81 | 1015.2 |
| 20260501203402 | 13 | 289 | 6.4 | 17.7 | 0.00 | 0.00 | 0.00 | 80 | 1015.0 |
| 20260501202901 | 13 | 295 | 6.4 | 17.7 | 0.00 | 0.00 | 0.00 | 80 | 1015.1 |
| 20260501202402 | 13 | 259 | 8.0 | 19.3 | 0.00 | 0.00 | 0.00 | 79 | 1015.0 |
| 20260501201902 | 13 | 282 | 11.3 | 19.3 | 0.00 | 0.00 | 0.00 | 79 | 1015.1 |
| 20260501201402 | 13 | 274 | 11.3 | 19.3 | 0.00 | 0.00 | 0.00 | 78 | 1015.0 |
| 20260501200902 | 14 | 279 | 9.7 | 19.3 | 0.00 | 0.00 | 0.00 | 78 | 1015.1 |
| 20260501200402 | 14 | 265 | 9.7 | 22.5 | 0.00 | 0.00 | 0.00 | 78 | 1015.1 |
| 20260501195902 | 14 | 266 | 11.3 | 22.5 | 0.00 | 0.00 | 0.00 | 78 | 1015.1 |
| 20260501195402 | 14 | 271 | 14.5 | 25.7 | 0.00 | 0.00 | 0.00 | 77 | 1015.0 |
| 20260501194903 | 14 | 264 | 16.1 | 27.4 | 0.00 | 0.00 | 0.00 | 77 | 1015.0 |
| 20260501194403 | 14 | 251 | 17.7 | 27.4 | 0.00 | 0.00 | 0.00 | 77 | 1014.9 |
| 20260501193902 | 14 | 268 | 11.3 | 27.4 | 0.00 | 0.00 | 0.00 | 76 | 1015.0 |
| 20260501193402 | 14 | 271 | 16.1 | 27.4 | 0.00 | 0.00 | 0.00 | 76 | 1014.9 |
| 20260501192902 | 14 | 300 | 14.5 | 25.7 | 0.00 | 0.00 | 0.00 | 76 | 1014.9 |
| 20260501192402 | 14 | 274 | 14.5 | 25.7 | 0.00 | 0.00 | 0.00 | 75 | 1014.9 |
| 20260501191903 | 15 | 309 | 14.5 | 29.0 | 0.00 | 0.00 | 0.00 | 75 | 1014.9 |
| 20260501191622 | 15 | 292 | 14.5 | 29.0 | 0.00 | 0.00 | 0.00 | 75 | 1014.9 |
| 20260501190903 | 15 | 271 | 17.7 | 25.7 | 0.00 | 0.00 | 0.00 | 74 | 1014.8 |
| 20260501190402 | 15 | 271 | 12.9 | 25.7 | 0.00 | 0.00 | 0.00 | 74 | 1014.8 |
| 20260501185902 | 15 | 289 | 14.5 | 25.7 | 0.00 | 0.00 | 0.00 | 74 | 1014.9 |
| 20260501185402 | 16 | 264 | 14.5 | 22.5 | 0.00 | 0.00 | 0.00 | 73 | 1014.8 |
| 20260501184902 | 16 | 255 | 14.5 | 20.9 | 0.00 | 0.00 | 0.00 | 72 | 1014.9 |
| 20260501184620 | 16 | 320 | 12.9 | 20.9 | 0.00 | 0.00 | 0.00 | 72 | 1014.8 |
| 20260501183903 | 16 | 306 | 9.7 | 19.3 | 0.00 | 0.00 | 0.00 | 71 | 1014.7 |
| 20260501183403 | 16 | 285 | 8.0 | 17.7 | 0.00 | 0.00 | 0.00 | 70 | 1014.8 |
| 20260501182902 | 16 | 283 | 8.0 | 20.9 | 0.00 | 0.00 | 0.00 | 70 | 1014.7 |
| 20260501182402 | 17 | 286 | 12.9 | 20.9 | 0.00 | 0.00 | 0.00 | 68 | 1014.7 |
| 20260501181902 | 17 | 286 | 14.5 | 20.9 | 0.00 | 0.00 | 0.00 | 68 | 1014.7 |
| 20260501181627 | 17 | 257 | 11.3 | 19.3 | 0.00 | 0.00 | 0.00 | 68 | 1014.7 |
| 20260501180902 | 17 | 281 | 9.7 | 16.1 | 0.00 | 0.00 | 0.00 | 68 | 1014.5 |
| 20260501180402 | 18 | 309 | 9.7 | 17.7 | 0.00 | 0.00 | 0.00 | 68 | 1014.6 |
| 20260501180123 | 18 | 274 | 9.7 | 17.7 | 0.00 | 0.00 | 0.00 | 67 | 1014.6 |
| 20260501175402 | 18 | 302 | 9.7 | 17.7 | 0.00 | 0.00 | 0.00 | 67 | 1014.6 |
| 20260501174903 | 18 | 309 | 8.0 | 19.3 | 0.00 | 0.00 | 0.00 | 66 | 1014.7 |
| 20260501174402 | 18 | 295 | 11.3 | 22.5 | 0.00 | 0.00 | 0.00 | 65 | 1014.6 |
| 20260501173902 | 18 | 293 | 11.3 | 22.5 | 0.00 | 0.00 | 0.00 | 65 | 1014.7 |
| 20260501173402 | 18 | 282 | 12.9 | 19.3 | 0.00 | 0.00 | 0.00 | 64 | 1014.7 |
| 20260501172902 | 18 | 283 | 9.7 | 16.1 | 0.00 | 0.00 | 0.00 | 65 | 1014.7 |
| 20260501172401 | 18 | 286 | 8.0 | 16.1 | 0.00 | 0.00 | 0.00 | 64 | 1014.6 |
| 20260501171902 | 19 | 295 | 9.7 | 20.9 | 0.00 | 0.00 | 0.00 | 64 | 1014.5 |
| 20260501170903 | 19 | 290 | 14.5 | 20.9 | 0.00 | 0.00 | 0.00 | 62 | 1014.6 |
| 20260501170402 | 19 | 306 | 11.3 | 19.3 | 0.00 | 0.00 | 0.00 | 63 | 1014.7 |
| 20260501165902 | 20 | 285 | 12.9 | 19.3 | 0.00 | 0.00 | 0.00 | 64 | 1014.7 |
| 20260501165627 | 20 | 288 | 11.3 | 17.7 | 0.00 | 0.00 | 0.00 | 63 | 1014.6 |
| 20260501164902 | 20 | 288 | 9.7 | 16.1 | 0.00 | 0.00 | 0.00 | 63 | 1014.6 |
| 20260501164402 | 20 | 268 | 9.7 | 24.1 | 0.00 | 0.00 | 0.00 | 61 | 1014.6 |
| 20260501163902 | 21 | 285 | 11.3 | 24.1 | 0.00 | 0.00 | 0.00 | 59 | 1014.7 |
| 20260501163403 | 21 | 288 | 12.9 | 19.3 | 0.00 | 0.00 | 0.00 | 60 | 1014.7 |
| 20260501162903 | 21 | 275 | 9.7 | 17.7 | 0.00 | 0.00 | 0.00 | 59 | 1014.7 |
| 20260501162402 | 21 | 272 | 11.3 | 20.9 | 0.00 | 0.00 | 0.00 | 59 | 1014.7 |
| 20260501161903 | 22 | 261 | 9.7 | 20.9 | 0.00 | 0.00 | 0.00 | 57 | 1014.7 |
| 20260501161621 | 22 | 282 | 9.7 | 14.5 | 0.00 | 0.00 | 0.00 | 57 | 1014.6 |